Wetterdaten: Montag, 20.06.2016
Datum Zeit Temperatur Luftfeuchte Luftdruck Regen Wind Richtung Richtung Sonnenschein ET UV Solar Taupunkt Windchill Windben
20.06.2016 00:00 9,7 C 87 % 1024,0 hPa 0,0 l/m 0,0 km/h (0 Bft) W-NW 302 0 min 0,000 mm 0,0 UV-I 0 W/m 7,6 C 9,7 C 0,0 km/h (0 Bft)
20.06.2016 00:05 9,7 C 87 % 1024,1 hPa 0,0 l/m 0,0 km/h (0 Bft) W-NW 302 0 min 0,000 mm 0,0 UV-I 0 W/m 7,6 C 9,7 C 0,0 km/h (0 Bft)
20.06.2016 00:10 9,6 C 88 % 1024,2 hPa 0,0 l/m 0,0 km/h (0 Bft) W-NW 302 0 min 0,000 mm 0,0 UV-I 0 W/m 7,7 C 9,6 C 0,0 km/h (0 Bft)
20.06.2016 00:15 9,4 C 88 % 1024,2 hPa 0,0 l/m 0,0 km/h (0 Bft) W-NW 302 0 min 0,000 mm 0,0 UV-I 0 W/m 7,5 C 9,4 C 0,0 km/h (0 Bft)
20.06.2016 00:20 9,3 C 88 % 1024,2 hPa 0,0 l/m 0,0 km/h (0 Bft) W-NW 302 0 min 0,000 mm 0,0 UV-I 0 W/m 7,4 C 9,3 C 0,0 km/h (0 Bft)
20.06.2016 00:25 9,2 C 88 % 1024,2 hPa 0,0 l/m 0,0 km/h (0 Bft) W-NW 302 0 min 0,000 mm 0,0 UV-I 0 W/m 7,3 C 9,2 C 0,0 km/h (0 Bft)
20.06.2016 00:30 9,1 C 89 % 1024,2 hPa 0,0 l/m 0,0 km/h (0 Bft) W-NW 302 0 min 0,000 mm 0,0 UV-I 0 W/m 7,4 C 9,1 C 0,0 km/h (0 Bft)
20.06.2016 00:35 9,0 C 89 % 1024,2 hPa 0,0 l/m 0,0 km/h (0 Bft) W-NW 302 0 min 0,000 mm 0,0 UV-I 0 W/m 7,3 C 9,0 C 0,0 km/h (0 Bft)
20.06.2016 00:40 8,9 C 89 % 1024,3 hPa 0,0 l/m 0,0 km/h (0 Bft) W-NW 302 0 min 0,000 mm 0,0 UV-I 0 W/m 7,2 C 8,9 C 0,0 km/h (0 Bft)
20.06.2016 00:45 8,8 C 89 % 1024,2 hPa 0,0 l/m 0,0 km/h (0 Bft) W-NW 302 0 min 0,000 mm 0,0 UV-I 0 W/m 7,1 C 8,8 C 0,0 km/h (0 Bft)
20.06.2016 00:50 8,7 C 89 % 1024,2 hPa 0,0 l/m 0,0 km/h (0 Bft) W-NW 302 0 min 0,000 mm 0,0 UV-I 0 W/m 7,0 C 8,7 C 0,0 km/h (0 Bft)
20.06.2016 00:55 8,6 C 89 % 1024,2 hPa 0,0 l/m 0,0 km/h (0 Bft) W-NW 302 0 min 0,000 mm 0,0 UV-I 0 W/m 6,9 C 8,6 C 0,0 km/h (0 Bft)
20.06.2016 01:00 8,5 C 89 % 1024,2 hPa 0,0 l/m 0,0 km/h (0 Bft) W-NW 302 0 min 0,000 mm 0,0 UV-I 0 W/m 6,8 C 8,5 C 0,0 km/h (0 Bft)
20.06.2016 01:05 8,4 C 89 % 1024,2 hPa 0,0 l/m 0,0 km/h (0 Bft) W-NW 302 0 min 0,000 mm 0,0 UV-I 0 W/m 6,7 C 8,4 C 0,0 km/h (0 Bft)
20.06.2016 01:10 8,3 C 89 % 1024,1 hPa 0,0 l/m 0,0 km/h (0 Bft) W-NW 302 0 min 0,000 mm 0,0 UV-I 0 W/m 6,6 C 8,3 C 0,0 km/h (0 Bft)
20.06.2016 01:15 8,3 C 90 % 1024,0 hPa 0,0 l/m 0,0 km/h (0 Bft) W-NW 302 0 min 0,000 mm 0,0 UV-I 0 W/m 6,8 C 8,3 C 0,0 km/h (0 Bft)
20.06.2016 01:20 8,2 C 90 % 1024,0 hPa 0,0 l/m 0,0 km/h (0 Bft) W-NW 302 0 min 0,000 mm 0,0 UV-I 0 W/m 6,7 C 8,2 C 0,0 km/h (0 Bft)
20.06.2016 01:25 8,1 C 90 % 1024,1 hPa 0,0 l/m 0,0 km/h (0 Bft) W-NW 302 0 min 0,000 mm 0,0 UV-I 0 W/m 6,6 C 8,1 C 0,0 km/h (0 Bft)
20.06.2016 01:30 7,9 C 90 % 1024,0 hPa 0,0 l/m 0,0 km/h (0 Bft) W-NW 302 0 min 0,000 mm 0,0 UV-I 0 W/m 6,4 C 7,9 C 0,0 km/h (0 Bft)
20.06.2016 01:35 7,9 C 90 % 1024,1 hPa 0,0 l/m 0,0 km/h (0 Bft) W-NW 302 0 min 0,000 mm 0,0 UV-I 0 W/m 6,4 C 7,9 C 0,0 km/h (0 Bft)
20.06.2016 01:40 7,8 C 90 % 1024,1 hPa 0,0 l/m 0,0 km/h (0 Bft) W-NW 302 0 min 0,000 mm 0,0 UV-I 0 W/m 6,3 C 7,8 C 0,0 km/h (0 Bft)
20.06.2016 01:45 7,7 C 90 % 1024,2 hPa 0,0 l/m 0,0 km/h (0 Bft) W-NW 302 0 min 0,000 mm 0,0 UV-I 0 W/m 6,2 C 7,7 C 0,0 km/h (0 Bft)
20.06.2016 01:50 7,7 C 91 % 1024,2 hPa 0,0 l/m 0,0 km/h (0 Bft) W-NW 302 0 min 0,000 mm 0,0 UV-I 0 W/m 6,3 C 7,7 C 0,0 km/h (0 Bft)
20.06.2016 01:55 7,6 C 90 % 1024,2 hPa 0,0 l/m 0,0 km/h (0 Bft) W-NW 302 0 min 0,000 mm 0,0 UV-I 0 W/m 6,1 C 7,6 C 0,0 km/h (0 Bft)
20.06.2016 02:00 7,5 C 91 % 1024,2 hPa 0,0 l/m 0,0 km/h (0 Bft) W-NW 302 0 min 0,000 mm 0,0 UV-I 0 W/m 6,1 C 7,5 C 0,0 km/h (0 Bft)
20.06.2016 02:05 7,4 C 91 % 1024,2 hPa 0,0 l/m 0,0 km/h (0 Bft) W-NW 302 0 min 0,000 mm 0,0 UV-I 0 W/m 6,0 C 7,4 C 0,0 km/h (0 Bft)
20.06.2016 02:10 7,3 C 91 % 1024,1 hPa 0,0 l/m 0,0 km/h (0 Bft) W-NW 302 0 min 0,000 mm 0,0 UV-I 0 W/m 5,9 C 7,3 C 0,0 km/h (0 Bft)
20.06.2016 02:15 7,3 C 91 % 1024,1 hPa 0,0 l/m 0,0 km/h (0 Bft) W-NW 302 0 min 0,000 mm 0,0 UV-I 0 W/m 5,9 C 7,3 C 0,0 km/h (0 Bft)
20.06.2016 02:20 7,2 C 91 % 1024,1 hPa 0,0 l/m 0,0 km/h (0 Bft) W-NW 302 0 min 0,000 mm 0,0 UV-I 0 W/m 5,8 C 7,2 C 0,0 km/h (0 Bft)
20.06.2016 02:25 7,2 C 91 % 1024,1 hPa 0,0 l/m 0,0 km/h (0 Bft) W-NW 302 0 min 0,000 mm 0,0 UV-I 0 W/m 5,8 C 7,2 C 0,0 km/h (0 Bft)
20.06.2016 02:30 7,1 C 91 % 1024,1 hPa 0,0 l/m 0,0 km/h (0 Bft) W-NW 302 0 min 0,000 mm 0,0 UV-I 0 W/m 5,7 C 7,1 C 0,0 km/h (0 Bft)
20.06.2016 02:35 7,0 C 91 % 1024,1 hPa 0,0 l/m 0,0 km/h (0 Bft) W-NW 302 0 min 0,000 mm 0,0 UV-I 0 W/m 5,6 C 7,0 C 0,0 km/h (0 Bft)
20.06.2016 02:40 6,9 C 91 % 1024,0 hPa 0,0 l/m 0,0 km/h (0 Bft) W-NW 302 0 min 0,000 mm 0,0 UV-I 0 W/m 5,5 C 6,9 C 0,0 km/h (0 Bft)
20.06.2016 02:45 6,9 C 91 % 1024,0 hPa 0,0 l/m 0,0 km/h (0 Bft) W-NW 302 0 min 0,000 mm 0,0 UV-I 0 W/m 5,5 C 6,9 C 0,0 km/h (0 Bft)
20.06.2016 02:50 6,8 C 91 % 1023,9 hPa 0,0 l/m 0,0 km/h (0 Bft) W-NW 302 0 min 0,000 mm 0,0 UV-I 0 W/m 5,4 C 6,8 C 0,0 km/h (0 Bft)
20.06.2016 02:55 6,7 C 91 % 1024,0 hPa 0,0 l/m 0,0 km/h (0 Bft) W-NW 302 0 min 0,000 mm 0,0 UV-I 0 W/m 5,3 C 6,7 C 0,0 km/h (0 Bft)
20.06.2016 03:00 6,7 C 92 % 1024,0 hPa 0,0 l/m 0,0 km/h (0 Bft) W-NW 302 0 min 0,000 mm 0,0 UV-I 0 W/m 5,5 C 6,7 C 0,0 km/h (0 Bft)
20.06.2016 03:05 6,7 C 92 % 1024,0 hPa 0,0 l/m 0,0 km/h (0 Bft) W-NW 302 0 min 0,000 mm 0,0 UV-I 0 W/m 5,5 C 6,7 C 0,0 km/h (0 Bft)
20.06.2016 03:10 6,6 C 92 % 1024,0 hPa 0,0 l/m 0,0 km/h (0 Bft) W-NW 302 0 min 0,000 mm 0,0 UV-I 0 W/m 5,4 C 6,6 C 0,0 km/h (0 Bft)
20.06.2016 03:15 6,5 C 92 % 1024,0 hPa 0,0 l/m 0,0 km/h (0 Bft) W-NW 302 0 min 0,000 mm 0,0 UV-I 0 W/m 5,3 C 6,5 C 0,0 km/h (0 Bft)
20.06.2016 03:20 6,4 C 92 % 1023,9 hPa 0,0 l/m 0,0 km/h (0 Bft) W-NW 302 0 min 0,000 mm 0,0 UV-I 0 W/m 5,2 C 6,4 C 0,0 km/h (0 Bft)
20.06.2016 03:25 6,4 C 93 % 1023,9 hPa 0,0 l/m 0,0 km/h (0 Bft) W-NW 302 0 min 0,000 mm 0,0 UV-I 0 W/m 5,4 C 6,4 C 0,0 km/h (0 Bft)
20.06.2016 03:30 6,4 C 93 % 1023,9 hPa 0,0 l/m 0,0 km/h (0 Bft) W-NW 302 0 min 0,000 mm 0,0 UV-I 0 W/m 5,4 C 6,4 C 0,0 km/h (0 Bft)
20.06.2016 03:35 6,5 C 93 % 1023,7 hPa 0,0 l/m 0,0 km/h (0 Bft) W-NW 302 0 min 0,000 mm 0,0 UV-I 0 W/m 5,5 C 6,5 C 0,0 km/h (0 Bft)
20.06.2016 03:40 6,5 C 93 % 1023,6 hPa 0,0 l/m 0,0 km/h (0 Bft) W-NW 302 0 min 0,000 mm 0,0 UV-I 0 W/m 5,5 C 6,5 C 0,0 km/h (0 Bft)
20.06.2016 03:45 6,5 C 93 % 1023,7 hPa 0,0 l/m 0,0 km/h (0 Bft) W-NW 302 0 min 0,000 mm 0,0 UV-I 0 W/m 5,5 C 6,5 C 0,0 km/h (0 Bft)
20.06.2016 03:50 6,5 C 93 % 1023,7 hPa 0,0 l/m 0,0 km/h (0 Bft) W-NW 302 0 min 0,000 mm 0,0 UV-I 0 W/m 5,5 C 6,5 C 0,0 km/h (0 Bft)
20.06.2016 03:55 6,4 C 93 % 1023,6 hPa 0,0 l/m 0,0 km/h (0 Bft) W-NW 302 0 min 0,000 mm 0,0 UV-I 0 W/m 5,4 C 6,4 C 0,0 km/h (0 Bft)
20.06.2016 04:00 6,4 C 93 % 1023,6 hPa 0,0 l/m 0,0 km/h (0 Bft) W-NW 302 0 min 0,000 mm 0,0 UV-I 0 W/m 5,4 C 6,4 C 0,0 km/h (0 Bft)
20.06.2016 04:05 6,4 C 93 % 1023,6 hPa 0,0 l/m 0,0 km/h (0 Bft) W-NW 302 0 min 0,000 mm 0,0 UV-I 0 W/m 5,4 C 6,4 C 0,0 km/h (0 Bft)
20.06.2016 04:10 6,4 C 94 % 1023,6 hPa 0,0 l/m 0,0 km/h (0 Bft) W-NW 302 0 min 0,000 mm 0,0 UV-I 0 W/m 5,5 C 6,4 C 0,0 km/h (0 Bft)
20.06.2016 04:15 6,5 C 94 % 1023,5 hPa 0,0 l/m 0,0 km/h (0 Bft) W-NW 302 0 min 0,000 mm 0,0 UV-I 0 W/m 5,6 C 6,5 C 0,0 km/h (0 Bft)
20.06.2016 04:20 6,6 C 94 % 1023,5 hPa 0,0 l/m 0,0 km/h (0 Bft) W-NW 302 0 min 0,000 mm 0,0 UV-I 0 W/m 5,7 C 6,6 C 0,0 km/h (0 Bft)
20.06.2016 04:25 6,6 C 94 % 1023,6 hPa 0,0 l/m 0,0 km/h (0 Bft) W-NW 302 0 min 0,000 mm 0,0 UV-I 0 W/m 5,7 C 6,6 C 0,0 km/h (0 Bft)
20.06.2016 04:30 6,6 C 94 % 1023,7 hPa 0,0 l/m 0,0 km/h (0 Bft) W-NW 302 0 min 0,000 mm 0,0 UV-I 0 W/m 5,7 C 6,6 C 0,0 km/h (0 Bft)
20.06.2016 04:35 6,5 C 94 % 1023,6 hPa 0,0 l/m 0,0 km/h (0 Bft) W-NW 302 0 min 0,000 mm 0,0 UV-I 0 W/m 5,6 C 6,5 C 0,0 km/h (0 Bft)
20.06.2016 04:40 6,4 C 94 % 1023,6 hPa 0,0 l/m 0,0 km/h (0 Bft) W-NW 302 0 min 0,000 mm 0,0 UV-I 0 W/m 5,5 C 6,4 C 0,0 km/h (0 Bft)
20.06.2016 04:45 6,3 C 95 % 1023,6 hPa 0,0 l/m 0,0 km/h (0 Bft) W-NW 302 0 min 0,000 mm 0,0 UV-I 0 W/m 5,6 C 6,3 C 0,0 km/h (0 Bft)
20.06.2016 04:50 6,3 C 95 % 1023,6 hPa 0,0 l/m 0,0 km/h (0 Bft) W-NW 302 0 min 0,000 mm 0,0 UV-I 0 W/m 5,6 C 6,3 C 0,0 km/h (0 Bft)
20.06.2016 04:55 6,3 C 95 % 1023,6 hPa 0,0 l/m 0,0 km/h (0 Bft) W-NW 302 0 min 0,000 mm 0,0 UV-I 0 W/m 5,6 C 6,3 C 0,0 km/h (0 Bft)
20.06.2016 05:00 6,3 C 95 % 1023,5 hPa 0,0 l/m 0,0 km/h (0 Bft) W-NW 302 0 min 0,000 mm 0,0 UV-I 0 W/m 5,6 C 6,3 C 0,0 km/h (0 Bft)
20.06.2016 05:05 6,3 C 95 % 1023,6 hPa 0,0 l/m 0,0 km/h (0 Bft) W-NW 302 0 min 0,000 mm 0,0 UV-I 0 W/m 5,6 C 6,3 C 0,0 km/h (0 Bft)
20.06.2016 05:10 6,3 C 95 % 1023,5 hPa 0,0 l/m 0,0 km/h (0 Bft) W-NW 302 0 min 0,000 mm 0,0 UV-I 0 W/m 5,6 C 6,3 C 0,0 km/h (0 Bft)
20.06.2016 05:15 6,2 C 95 % 1023,5 hPa 0,0 l/m 0,0 km/h (0 Bft) W-NW 302 0 min 0,000 mm 0,0 UV-I 0 W/m 5,5 C 6,2 C 0,0 km/h (0 Bft)
20.06.2016 05:20 6,2 C 95 % 1023,6 hPa 0,0 l/m 0,0 km/h (0 Bft) W-NW 302 0 min 0,000 mm 0,0 UV-I 2 W/m 5,5 C 6,2 C 0,0 km/h (0 Bft)
20.06.2016 05:25 6,2 C 95 % 1023,5 hPa 0,0 l/m 0,0 km/h (0 Bft) W-NW 302 0 min 0,000 mm 0,0 UV-I 5 W/m 5,5 C 6,2 C 0,0 km/h (0 Bft)
20.06.2016 05:30 6,2 C 95 % 1023,5 hPa 0,0 l/m 0,0 km/h (0 Bft) W-NW 302 0 min 0,000 mm 0,0 UV-I 6 W/m 5,5 C 6,2 C 0,0 km/h (0 Bft)
20.06.2016 05:35 6,2 C 95 % 1023,5 hPa 0,0 l/m 0,0 km/h (0 Bft) W-NW 302 0 min 0,000 mm 0,0 UV-I 8 W/m 5,5 C 6,2 C 0,0 km/h (0 Bft)
20.06.2016 05:40 6,2 C 95 % 1023,5 hPa 0,0 l/m 0,0 km/h (0 Bft) W-NW 302 0 min 0,000 mm 0,0 UV-I 10 W/m 5,5 C 6,2 C 0,0 km/h (0 Bft)
20.06.2016 05:45 6,2 C 95 % 1023,5 hPa 0,0 l/m 0,0 km/h (0 Bft) W-NW 302 0 min 0,000 mm 0,0 UV-I 14 W/m 5,5 C 6,2 C 0,0 km/h (0 Bft)
20.06.2016 05:50 6,2 C 95 % 1023,5 hPa 0,0 l/m 0,0 km/h (0 Bft) W-NW 302 0 min 0,000 mm 0,0 UV-I 19 W/m 5,5 C 6,2 C 0,0 km/h (0 Bft)
20.06.2016 05:55 6,2 C 95 % 1023,4 hPa 0,0 l/m 0,0 km/h (0 Bft) W-NW 302 0 min 0,000 mm 0,0 UV-I 23 W/m 5,5 C 6,2 C 0,0 km/h (0 Bft)
20.06.2016 06:00 6,1 C 95 % 1023,4 hPa 0,0 l/m 0,0 km/h (0 Bft) W-NW 302 0 min 0,000 mm 0,0 UV-I 26 W/m 5,4 C 6,1 C 0,0 km/h (0 Bft)
20.06.2016 06:05 6,2 C 95 % 1023,5 hPa 0,0 l/m 0,0 km/h (0 Bft) W-NW 302 0 min 0,000 mm 0,0 UV-I 25 W/m 5,5 C 6,2 C 0,0 km/h (0 Bft)
20.06.2016 06:10 6,1 C 95 % 1023,4 hPa 0,0 l/m 0,0 km/h (0 Bft) W-NW 302 0 min 0,000 mm 0,0 UV-I 31 W/m 5,4 C 6,1 C 0,0 km/h (0 Bft)
20.06.2016 06:15 6,1 C 95 % 1023,3 hPa 0,0 l/m 0,0 km/h (0 Bft) W-NW 302 0 min 0,000 mm 0,0 UV-I 34 W/m 5,4 C 6,1 C 0,0 km/h (0 Bft)
20.06.2016 06:20 6,1 C 95 % 1023,4 hPa 0,0 l/m 0,0 km/h (0 Bft) W-NW 302 0 min 0,000 mm 0,0 UV-I 34 W/m 5,4 C 6,1 C 0,0 km/h (0 Bft)
20.06.2016 06:25 6,1 C 95 % 1023,4 hPa 0,0 l/m 0,0 km/h (0 Bft) W-NW 302 0 min 0,000 mm 0,0 UV-I 42 W/m 5,4 C 6,1 C 0,0 km/h (0 Bft)
20.06.2016 06:30 6,2 C 96 % 1023,3 hPa 0,0 l/m 0,0 km/h (0 Bft) W-NW 302 0 min 0,000 mm 0,0 UV-I 47 W/m 5,6 C 6,2 C 0,0 km/h (0 Bft)
20.06.2016 06:35 6,3 C 96 % 1023,2 hPa 0,0 l/m 0,0 km/h (0 Bft) W-NW 302 0 min 0,000 mm 0,0 UV-I 46 W/m 5,7 C 6,3 C 0,0 km/h (0 Bft)
20.06.2016 06:40 6,3 C 96 % 1023,2 hPa 0,0 l/m 0,0 km/h (0 Bft) W-NW 302 0 min 0,000 mm 0,0 UV-I 49 W/m 5,7 C 6,3 C 0,0 km/h (0 Bft)
20.06.2016 06:45 6,4 C 96 % 1023,2 hPa 0,0 l/m 0,0 km/h (0 Bft) W-NW 302 0 min 0,000 mm 0,0 UV-I 63 W/m 5,8 C 6,4 C 0,0 km/h (0 Bft)
20.06.2016 06:50 6,4 C 96 % 1023,2 hPa 0,0 l/m 0,0 km/h (0 Bft) W-NW 302 0 min 0,000 mm 0,0 UV-I 80 W/m 5,8 C 6,4 C 0,0 km/h (0 Bft)
20.06.2016 06:55 6,5 C 96 % 1023,2 hPa 0,0 l/m 0,0 km/h (0 Bft) W-NW 302 0 min 0,000 mm 0,0 UV-I 78 W/m 5,9 C 6,5 C 0,0 km/h (0 Bft)
20.06.2016 07:00 6,5 C 96 % 1023,0 hPa 0,0 l/m 0,0 km/h (0 Bft) W-NW 302 0 min 0,000 mm 0,0 UV-I 76 W/m 5,9 C 6,5 C 0,0 km/h (0 Bft)
20.06.2016 07:05 6,6 C 96 % 1023,0 hPa 0,0 l/m 0,0 km/h (0 Bft) W-NW 302 0 min 0,025 mm 0,0 UV-I 77 W/m 6,0 C 6,6 C 0,0 km/h (0 Bft)
20.06.2016 07:10 6,7 C 96 % 1023,1 hPa 0,0 l/m 0,0 km/h (0 Bft) W-NW 302 0 min 0,000 mm 0,0 UV-I 81 W/m 6,1 C 6,7 C 0,0 km/h (0 Bft)
20.06.2016 07:15 6,7 C 96 % 1022,9 hPa 0,0 l/m 0,0 km/h (0 Bft) W-NW 302 0 min 0,000 mm 0,0 UV-I 101 W/m 6,1 C 6,7 C 0,0 km/h (0 Bft)
20.06.2016 07:20 6,8 C 96 % 1022,8 hPa 0,0 l/m 0,0 km/h (0 Bft) W-NW 302 0 min 0,000 mm 0,5 UV-I 120 W/m 6,2 C 6,8 C 0,0 km/h (0 Bft)
20.06.2016 07:25 7,1 C 96 % 1022,8 hPa 0,0 l/m 0,0 km/h (0 Bft) W-NW 302 0 min 0,000 mm 0,5 UV-I 141 W/m 6,5 C 7,1 C 0,0 km/h (0 Bft)
20.06.2016 07:30 7,3 C 96 % 1022,9 hPa 0,0 l/m 0,0 km/h (0 Bft) W-NW 302 0 min 0,000 mm 0,5 UV-I 123 W/m 6,7 C 7,3 C 0,0 km/h (0 Bft)
20.06.2016 07:35 7,5 C 96 % 1022,8 hPa 0,0 l/m 0,0 km/h (0 Bft) W-NW 302 0 min 0,000 mm 0,6 UV-I 134 W/m 6,9 C 7,5 C 0,0 km/h (0 Bft)
20.06.2016 07:40 7,6 C 96 % 1022,8 hPa 0,0 l/m 0,0 km/h (0 Bft) W-NW 302 0 min 0,000 mm 0,6 UV-I 129 W/m 7,0 C 7,6 C 0,0 km/h (0 Bft)
20.06.2016 07:45 7,6 C 96 % 1022,8 hPa 0,0 l/m 0,0 km/h (0 Bft) W-NW 302 0 min 0,000 mm 0,7 UV-I 184 W/m 7,0 C 7,6 C 0,0 km/h (0 Bft)
20.06.2016 07:50 8,1 C 96 % 1022,7 hPa 0,0 l/m 0,0 km/h (0 Bft) W-NW 302 5 min 0,000 mm 0,8 UV-I 237 W/m 7,5 C 8,1 C 0,0 km/h (0 Bft)
20.06.2016 07:55 8,6 C 96 % 1022,7 hPa 0,0 l/m 0,0 km/h (0 Bft) W-NW 302 5 min 0,000 mm 0,8 UV-I 247 W/m 8,0 C 8,6 C 0,0 km/h (0 Bft)
20.06.2016 08:00 8,9 C 96 % 1022,7 hPa 0,0 l/m 0,0 km/h (0 Bft) W-NW 302 5 min 0,000 mm 0,9 UV-I 258 W/m 8,3 C 8,9 C 0,0 km/h (0 Bft)
20.06.2016 08:05 9,1 C 96 % 1022,7 hPa 0,0 l/m 0,0 km/h (0 Bft) W-NW 302 5 min 0,077 mm 1,0 UV-I 271 W/m 8,5 C 9,1 C 0,0 km/h (0 Bft)
20.06.2016 08:10 9,4 C 96 % 1022,5 hPa 0,0 l/m 0,0 km/h (0 Bft) W-NW 302 5 min 0,000 mm 1,1 UV-I 285 W/m 8,8 C 9,4 C 0,0 km/h (0 Bft)
20.06.2016 08:15 9,8 C 95 % 1022,6 hPa 0,0 l/m 0,0 km/h (0 Bft) W-NW 302 5 min 0,000 mm 1,2 UV-I 308 W/m 9,0 C 9,8 C 0,0 km/h (0 Bft)
20.06.2016 08:20 10,2 C 93 % 1022,6 hPa 0,0 l/m 0,0 km/h (0 Bft) W-NW 302 5 min 0,000 mm 1,3 UV-I 333 W/m 9,1 C 10,2 C 0,0 km/h (0 Bft)
20.06.2016 08:25 10,7 C 91 % 1022,6 hPa 0,0 l/m 0,0 km/h (0 Bft) W-NW 302 5 min 0,000 mm 1,3 UV-I 350 W/m 9,3 C 10,7 C 0,0 km/h (0 Bft)
20.06.2016 08:30 10,9 C 90 % 1022,6 hPa 0,0 l/m 0,0 km/h (0 Bft) W-NW 302 5 min 0,000 mm 1,4 UV-I 366 W/m 9,3 C 10,9 C 0,0 km/h (0 Bft)
20.06.2016 08:35 11,6 C 87 % 1022,6 hPa 0,0 l/m 0,0 km/h (0 Bft) W-NW 300 5 min 0,000 mm 1,5 UV-I 380 W/m 9,5 C 11,6 C 0,0 km/h (0 Bft)
20.06.2016 08:40 12,4 C 87 % 1022,6 hPa 0,0 l/m 0,0 km/h (0 Bft) NO 54 5 min 0,000 mm 1,6 UV-I 394 W/m 10,3 C 12,4 C 0,0 km/h (0 Bft)
20.06.2016 08:45 13,2 C 83 % 1022,6 hPa 0,0 l/m 0,0 km/h (0 Bft) O-NO 57 5 min 0,000 mm 1,7 UV-I 408 W/m 10,4 C 13,2 C 0,0 km/h (0 Bft)
20.06.2016 08:50 13,6 C 81 % 1022,6 hPa 0,0 l/m 0,0 km/h (0 Bft) O-SO 109 5 min 0,000 mm 1,8 UV-I 420 W/m 10,4 C 13,6 C 0,0 km/h (0 Bft)
20.06.2016 08:55 13,9 C 80 % 1022,6 hPa 0,0 l/m 0,0 km/h (0 Bft) O-SO 109 5 min 0,000 mm 1,9 UV-I 432 W/m 10,5 C 13,9 C 0,0 km/h (0 Bft)
20.06.2016 09:00 14,3 C 79 % 1022,6 hPa 0,0 l/m 0,0 km/h (0 Bft) O-SO 109 5 min 0,000 mm 2,0 UV-I 446 W/m 10,7 C 14,3 C 0,0 km/h (0 Bft)
20.06.2016 09:05 14,9 C 74 % 1022,5 hPa 0,0 l/m 0,0 km/h (0 Bft) O-SO 115 5 min 0,177 mm 2,1 UV-I 459 W/m 10,3 C 14,9 C 0,0 km/h (0 Bft)
20.06.2016 09:10 15,2 C 73 % 1022,4 hPa 0,0 l/m 0,0 km/h (0 Bft) S-SO 154 5 min 0,000 mm 2,2 UV-I 471 W/m 10,4 C 15,2 C 0,0 km/h (0 Bft)
20.06.2016 09:15 15,6 C 71 % 1022,5 hPa 0,0 l/m 0,0 km/h (0 Bft) S-SO 150 5 min 0,000 mm 2,3 UV-I 485 W/m 10,4 C 15,6 C 0,0 km/h (0 Bft)
20.06.2016 09:20 15,9 C 70 % 1022,5 hPa 0,0 l/m 0,0 km/h (0 Bft) W 281 5 min 0,000 mm 2,4 UV-I 497 W/m 10,4 C 15,9 C 0,0 km/h (0 Bft)
20.06.2016 09:25 15,8 C 68 % 1022,3 hPa 0,0 l/m 2,0 km/h (1 Bft) W-NW 298 5 min 0,000 mm 2,5 UV-I 509 W/m 9,9 C 15,8 C 8,0 km/h (2 Bft)
20.06.2016 09:30 15,5 C 68 % 1022,3 hPa 0,0 l/m 2,5 km/h (1 Bft) NW 306 5 min 0,000 mm 2,7 UV-I 523 W/m 9,6 C 15,5 C 6,4 km/h (2 Bft)
20.06.2016 09:35 15,5 C 65 % 1022,3 hPa 0,0 l/m 3,1 km/h (1 Bft) W 280 5 min 0,000 mm 2,8 UV-I 536 W/m 8,9 C 15,5 C 8,0 km/h (2 Bft)
20.06.2016 09:40 15,6 C 68 % 1022,2 hPa 0,0 l/m 1,0 km/h (0 Bft) S 179 5 min 0,000 mm 3,0 UV-I 550 W/m 9,7 C 15,6 C 4,8 km/h (1 Bft)
20.06.2016 09:45 16,3 C 63 % 1022,1 hPa 0,0 l/m 2,4 km/h (1 Bft) S-SO 156 5 min 0,000 mm 3,1 UV-I 564 W/m 9,2 C 16,3 C 9,7 km/h (2 Bft)
20.06.2016 09:50 16,8 C 60 % 1022,1 hPa 0,0 l/m 3,6 km/h (1 Bft) SW 217 5 min 0,000 mm 3,2 UV-I 561 W/m 9,0 C 16,8 C 11,3 km/h (2 Bft)
20.06.2016 09:55 17,0 C 63 % 1022,1 hPa 0,0 l/m 0,2 km/h (0 Bft) N-NO 19 5 min 0,000 mm 3,4 UV-I 583 W/m 9,9 C 17,0 C 4,8 km/h (1 Bft)
20.06.2016 10:00 17,3 C 60 % 1022,0 hPa 0,0 l/m 1,2 km/h (1 Bft) S-SO 165 5 min 0,000 mm 3,5 UV-I 599 W/m 9,5 C 17,3 C 9,7 km/h (2 Bft)
20.06.2016 10:05 17,4 C 60 % 1022,0 hPa 0,0 l/m 1,5 km/h (1 Bft) S 169 5 min 0,280 mm 3,7 UV-I 608 W/m 9,6 C 17,4 C 12,9 km/h (3 Bft)
20.06.2016 10:10 17,5 C 60 % 1021,9 hPa 0,0 l/m 1,6 km/h (1 Bft) S-SO 167 5 min 0,000 mm 3,8 UV-I 619 W/m 9,6 C 17,5 C 9,7 km/h (2 Bft)
20.06.2016 10:15 17,4 C 61 % 1021,9 hPa 0,0 l/m 2,1 km/h (1 Bft) S 188 5 min 0,000 mm 3,8 UV-I 608 W/m 9,8 C 17,4 C 9,7 km/h (2 Bft)
20.06.2016 10:20 17,5 C 62 % 1021,9 hPa 0,0 l/m 1,3 km/h (1 Bft) S 179 5 min 0,000 mm 4,0 UV-I 638 W/m 10,1 C 17,5 C 8,0 km/h (2 Bft)
20.06.2016 10:25 18,2 C 61 % 1021,8 hPa 0,0 l/m 0,5 km/h (0 Bft) W-SW 254 5 min 0,000 mm 4,2 UV-I 657 W/m 10,6 C 18,2 C 6,4 km/h (2 Bft)
20.06.2016 10:30 17,7 C 61 % 1021,8 hPa 0,0 l/m 5,9 km/h (2 Bft) SW 215 5 min 0,000 mm 4,3 UV-I 661 W/m 10,1 C 17,7 C 14,5 km/h (3 Bft)
20.06.2016 10:35 17,7 C 62 % 1021,7 hPa 0,0 l/m 6,5 km/h (2 Bft) W 273 5 min 0,000 mm 4,5 UV-I 676 W/m 10,3 C 17,7 C 14,5 km/h (3 Bft)
20.06.2016 10:40 18,1 C 59 % 1021,6 hPa 0,0 l/m 2,9 km/h (1 Bft) O 99 5 min 0,000 mm 4,6 UV-I 685 W/m 10,0 C 18,1 C 12,9 km/h (3 Bft)
20.06.2016 10:45 19,0 C 59 % 1021,5 hPa 0,0 l/m 1,2 km/h (1 Bft) W 260 5 min 0,000 mm 4,8 UV-I 697 W/m 10,8 C 19,0 C 8,0 km/h (2 Bft)
20.06.2016 10:50 18,8 C 57 % 1021,5 hPa 0,0 l/m 3,4 km/h (1 Bft) W 267 5 min 0,000 mm 5,0 UV-I 704 W/m 10,1 C 18,8 C 11,3 km/h (2 Bft)
20.06.2016 10:55 18,9 C 56 % 1021,4 hPa 0,0 l/m 3,7 km/h (1 Bft) NW 322 5 min 0,000 mm 5,1 UV-I 716 W/m 9,9 C 18,9 C 14,5 km/h (3 Bft)
20.06.2016 11:00 18,9 C 57 % 1021,4 hPa 0,0 l/m 4,0 km/h (1 Bft) S-SW 195 5 min 0,000 mm 5,3 UV-I 728 W/m 10,2 C 18,9 C 14,5 km/h (3 Bft)
20.06.2016 11:05 18,7 C 54 % 1021,3 hPa 0,0 l/m 5,4 km/h (1 Bft) W-SW 248 5 min 0,381 mm 5,4 UV-I 746 W/m 9,2 C 18,7 C 16,1 km/h (3 Bft)
20.06.2016 11:10 18,2 C 59 % 1021,3 hPa 0,0 l/m 7,2 km/h (2 Bft) W 277 5 min 0,000 mm 5,5 UV-I 732 W/m 10,1 C 17,8 C 17,7 km/h (3 Bft)
20.06.2016 11:15 18,7 C 58 % 1021,2 hPa 0,0 l/m 2,2 km/h (1 Bft) SW 236 5 min 0,000 mm 5,6 UV-I 732 W/m 10,3 C 18,7 C 8,0 km/h (2 Bft)
20.06.2016 11:20 18,5 C 57 % 1021,3 hPa 0,0 l/m 5,5 km/h (1 Bft) S-SO 168 5 min 0,000 mm 4,9 UV-I 570 W/m 9,8 C 18,5 C 16,1 km/h (3 Bft)
20.06.2016 11:25 19,0 C 57 % 1021,2 hPa 0,0 l/m 3,4 km/h (1 Bft) S 190 5 min 0,000 mm 5,8 UV-I 798 W/m 10,3 C 19,0 C 9,7 km/h (2 Bft)
20.06.2016 11:30 19,2 C 58 % 1021,2 hPa 0,0 l/m 4,5 km/h (1 Bft) S 178 5 min 0,000 mm 6,0 UV-I 828 W/m 10,7 C 19,2 C 19,3 km/h (3 Bft)
20.06.2016 11:35 19,8 C 55 % 1021,0 hPa 0,0 l/m 2,9 km/h (1 Bft) S 173 5 min 0,000 mm 6,2 UV-I 859 W/m 10,5 C 19,8 C 14,5 km/h (3 Bft)
20.06.2016 11:40 19,2 C 54 % 1020,9 hPa 0,0 l/m 8,1 km/h (2 Bft) SW 223 5 min 0,000 mm 6,4 UV-I 805 W/m 9,7 C 18,5 C 16,1 km/h (3 Bft)
20.06.2016 11:45 19,6 C 53 % 1020,9 hPa 0,0 l/m 6,6 km/h (2 Bft) S 178 5 min 0,000 mm 6,5 UV-I 804 W/m 9,8 C 19,5 C 17,7 km/h (3 Bft)
20.06.2016 11:50 19,9 C 55 % 1020,8 hPa 0,0 l/m 4,1 km/h (1 Bft) S-SW 196 5 min 0,000 mm 6,5 UV-I 795 W/m 10,6 C 19,9 C 11,3 km/h (2 Bft)
20.06.2016 11:55 20,3 C 50 % 1020,7 hPa 0,0 l/m 4,3 km/h (1 Bft) W 274 5 min 0,000 mm 6,4 UV-I 782 W/m 9,5 C 20,3 C 17,7 km/h (3 Bft)
20.06.2016 12:00 19,2 C 55 % 1020,7 hPa 0,0 l/m 4,8 km/h (1 Bft) SW 231 5 min 0,000 mm 6,5 UV-I 769 W/m 9,9 C 19,2 C 12,9 km/h (3 Bft)
20.06.2016 12:05 19,8 C 55 % 1020,7 hPa 0,0 l/m 4,9 km/h (1 Bft) S-SO 157 5 min 0,457 mm 6,8 UV-I 812 W/m 10,5 C 19,8 C 12,9 km/h (3 Bft)
20.06.2016 12:10 19,9 C 55 % 1020,7 hPa 0,0 l/m 7,2 km/h (2 Bft) SO 136 5 min 0,000 mm 6,7 UV-I 820 W/m 10,6 C 19,6 C 19,3 km/h (3 Bft)
20.06.2016 12:15 20,3 C 55 % 1020,6 hPa 0,0 l/m 2,1 km/h (1 Bft) S-SW 207 5 min 0,000 mm 6,2 UV-I 614 W/m 11,0 C 20,3 C 12,9 km/h (3 Bft)
20.06.2016 12:20 20,2 C 52 % 1020,6 hPa 0,0 l/m 5,3 km/h (1 Bft) O 98 5 min 0,000 mm 7,2 UV-I 874 W/m 10,0 C 20,2 C 14,5 km/h (3 Bft)
20.06.2016 12:25 19,8 C 52 % 1020,6 hPa 0,0 l/m 6,6 km/h (2 Bft) SO 128 5 min 0,000 mm 7,4 UV-I 922 W/m 9,7 C 19,7 C 20,9 km/h (4 Bft)
20.06.2016 12:30 20,0 C 53 % 1020,5 hPa 0,0 l/m 4,9 km/h (1 Bft) S-SW 205 5 min 0,000 mm 5,5 UV-I 919 W/m 10,1 C 20,0 C 14,5 km/h (3 Bft)
20.06.2016 12:35 20,1 C 51 % 1020,3 hPa 0,0 l/m 4,0 km/h (1 Bft) W-NW 300 5 min 0,000 mm 7,0 UV-I 874 W/m 9,6 C 20,1 C 11,3 km/h (2 Bft)
20.06.2016 12:40 20,3 C 48 % 1020,3 hPa 0,0 l/m 6,3 km/h (2 Bft) W-NW 284 5 min 0,000 mm 7,7 UV-I 901 W/m 8,9 C 20,3 C 14,5 km/h (3 Bft)
20.06.2016 12:45 20,7 C 53 % 1020,2 hPa 0,0 l/m 2,2 km/h (1 Bft) S 169 5 min 0,000 mm 7,5 UV-I 869 W/m 10,8 C 20,7 C 11,3 km/h (2 Bft)
20.06.2016 12:50 20,8 C 49 % 1020,4 hPa 0,0 l/m 6,2 km/h (2 Bft) W-SW 257 5 min 0,000 mm 7,7 UV-I 908 W/m 9,7 C 20,8 C 16,1 km/h (3 Bft)
20.06.2016 12:55 21,1 C 48 % 1020,4 hPa 0,0 l/m 6,1 km/h (2 Bft) W 267 5 min 0,000 mm 7,7 UV-I 896 W/m 9,7 C 21,1 C 16,1 km/h (3 Bft)
20.06.2016 13:00 20,6 C 50 % 1020,3 hPa 0,0 l/m 7,7 km/h (2 Bft) W-SW 257 5 min 0,000 mm 7,7 UV-I 887 W/m 9,8 C 20,1 C 16,1 km/h (3 Bft)
20.06.2016 13:05 21,4 C 49 % 1020,2 hPa 0,0 l/m 4,2 km/h (1 Bft) W-SW 250 5 min 0,508 mm 7,0 UV-I 865 W/m 10,2 C 21,4 C 12,9 km/h (3 Bft)
20.06.2016 13:10 20,3 C 48 % 1020,1 hPa 0,0 l/m 6,6 km/h (2 Bft) W-SW 246 5 min 0,000 mm 4,8 UV-I 494 W/m 8,9 C 20,2 C 16,1 km/h (3 Bft)
20.06.2016 13:15 20,3 C 50 % 1020,1 hPa 0,0 l/m 6,9 km/h (2 Bft) W-SW 242 5 min 0,000 mm 7,1 UV-I 919 W/m 9,5 C 20,1 C 17,7 km/h (3 Bft)
20.06.2016 13:20 20,3 C 49 % 1020,0 hPa 0,0 l/m 8,4 km/h (2 Bft) W 279 5 min 0,000 mm 7,5 UV-I 894 W/m 9,2 C 19,5 C 20,9 km/h (4 Bft)
20.06.2016 13:25 20,7 C 50 % 1020,0 hPa 0,0 l/m 4,0 km/h (1 Bft) N-NO 29 5 min 0,000 mm 5,5 UV-I 655 W/m 9,9 C 20,7 C 12,9 km/h (3 Bft)
20.06.2016 13:30 21,2 C 51 % 1019,9 hPa 0,0 l/m 2,8 km/h (1 Bft) S 171 0 min 0,000 mm 4,8 UV-I 473 W/m 10,7 C 21,2 C 12,9 km/h (3 Bft)
20.06.2016 13:35 21,2 C 49 % 1019,8 hPa 0,0 l/m 1,9 km/h (1 Bft) SW 233 5 min 0,000 mm 5,2 UV-I 548 W/m 10,1 C 21,2 C 11,3 km/h (2 Bft)
20.06.2016 13:40 20,3 C 51 % 1019,7 hPa 0,0 l/m 5,2 km/h (1 Bft) SW 230 5 min 0,000 mm 5,7 UV-I 600 W/m 9,8 C 20,3 C 16,1 km/h (3 Bft)
20.06.2016 13:45 20,4 C 52 % 1019,7 hPa 0,0 l/m 4,6 km/h (1 Bft) W-SW 245 5 min 0,000 mm 5,6 UV-I 591 W/m 10,2 C 20,4 C 12,9 km/h (3 Bft)
20.06.2016 13:50 20,8 C 51 % 1019,7 hPa 0,0 l/m 2,7 km/h (1 Bft) S 169 5 min 0,000 mm 6,4 UV-I 832 W/m 10,3 C 20,8 C 12,9 km/h (3 Bft)
20.06.2016 13:55 21,4 C 48 % 1019,6 hPa 0,0 l/m 2,7 km/h (1 Bft) W 261 5 min 0,000 mm 8,0 UV-I 903 W/m 9,9 C 21,4 C 12,9 km/h (3 Bft)
20.06.2016 14:00 21,4 C 49 % 1019,7 hPa 0,0 l/m 4,8 km/h (1 Bft) S 173 5 min 0,000 mm 6,0 UV-I 615 W/m 10,2 C 21,4 C 14,5 km/h (3 Bft)
20.06.2016 14:05 21,2 C 49 % 1019,5 hPa 0,0 l/m 5,6 km/h (1 Bft) NW 322 5 min 0,406 mm 8,1 UV-I 971 W/m 10,1 C 21,2 C 14,5 km/h (3 Bft)
20.06.2016 14:10 21,4 C 47 % 1019,4 hPa 0,0 l/m 6,3 km/h (2 Bft) O-SO 107 5 min 0,000 mm 8,0 UV-I 979 W/m 9,6 C 21,4 C 20,9 km/h (4 Bft)
20.06.2016 14:15 21,4 C 46 % 1019,4 hPa 0,0 l/m 4,7 km/h (1 Bft) S-SW 198 5 min 0,000 mm 7,1 UV-I 827 W/m 9,3 C 21,4 C 14,5 km/h (3 Bft)
20.06.2016 14:20 21,3 C 46 % 1019,3 hPa 0,0 l/m 9,3 km/h (2 Bft) S 184 5 min 0,000 mm 7,3 UV-I 853 W/m 9,2 C 20,3 C 22,5 km/h (4 Bft)
20.06.2016 14:25 22,2 C 44 % 1019,2 hPa 0,0 l/m 1,8 km/h (1 Bft) S 186 5 min 0,000 mm 7,1 UV-I 902 W/m 9,4 C 22,2 C 8,0 km/h (2 Bft)
20.06.2016 14:30 22,5 C 47 % 1019,2 hPa 0,0 l/m 3,6 km/h (1 Bft) SW 221 5 min 0,000 mm 7,5 UV-I 926 W/m 10,6 C 22,5 C 17,7 km/h (3 Bft)
20.06.2016 14:35 22,4 C 46 % 1019,2 hPa 0,0 l/m 2,4 km/h (1 Bft) W 272 5 min 0,000 mm 6,0 UV-I 801 W/m 10,2 C 22,4 C 8,0 km/h (2 Bft)
20.06.2016 14:40 22,5 C 44 % 1019,1 hPa 0,0 l/m 0,7 km/h (0 Bft) SW 219 5 min 0,000 mm 6,1 UV-I 660 W/m 9,6 C 22,5 C 4,8 km/h (1 Bft)
20.06.2016 14:45 22,1 C 47 % 1019,0 hPa 0,0 l/m 2,4 km/h (1 Bft) SO 134 0 min 0,000 mm 5,3 UV-I 459 W/m 10,3 C 22,1 C 17,7 km/h (3 Bft)
20.06.2016 14:50 21,8 C 45 % 1019,0 hPa 0,0 l/m 4,8 km/h (1 Bft) S-SW 211 5 min 0,000 mm 4,4 UV-I 498 W/m 9,3 C 21,8 C 16,1 km/h (3 Bft)
20.06.2016 14:55 21,3 C 47 % 1019,0 hPa 0,0 l/m 3,8 km/h (1 Bft) S-SW 203 0 min 0,000 mm 3,7 UV-I 407 W/m 9,5 C 21,3 C 16,1 km/h (3 Bft)
20.06.2016 15:00 21,8 C 47 % 1018,9 hPa 0,0 l/m 1,6 km/h (1 Bft) SW 223 0 min 0,000 mm 3,6 UV-I 414 W/m 10,0 C 21,8 C 8,0 km/h (2 Bft)
20.06.2016 15:05 21,7 C 48 % 1018,9 hPa 0,0 l/m 3,5 km/h (1 Bft) S-SW 199 0 min 0,458 mm 3,2 UV-I 367 W/m 10,2 C 21,7 C 9,7 km/h (2 Bft)
20.06.2016 15:10 21,4 C 47 % 1018,8 hPa 0,0 l/m 2,4 km/h (1 Bft) SW 219 0 min 0,000 mm 3,0 UV-I 356 W/m 9,6 C 21,4 C 6,4 km/h (2 Bft)
20.06.2016 15:15 21,7 C 47 % 1018,7 hPa 0,0 l/m 3,2 km/h (1 Bft) S-SW 201 0 min 0,000 mm 3,6 UV-I 433 W/m 9,9 C 21,7 C 11,3 km/h (2 Bft)
20.06.2016 15:20 21,2 C 49 % 1018,7 hPa 0,0 l/m 3,3 km/h (1 Bft) S-SO 158 5 min 0,000 mm 3,8 UV-I 451 W/m 10,1 C 21,2 C 12,9 km/h (3 Bft)
20.06.2016 15:25 21,1 C 50 % 1018,5 hPa 0,0 l/m 3,7 km/h (1 Bft) S-SO 153 5 min 0,000 mm 3,7 UV-I 446 W/m 10,3 C 21,1 C 17,7 km/h (3 Bft)
20.06.2016 15:30 21,5 C 49 % 1018,5 hPa 0,0 l/m 2,2 km/h (1 Bft) SW 228 5 min 0,000 mm 3,7 UV-I 459 W/m 10,3 C 21,5 C 16,1 km/h (3 Bft)
20.06.2016 15:35 21,3 C 50 % 1018,5 hPa 0,0 l/m 2,1 km/h (1 Bft) S-SW 203 5 min 0,000 mm 3,9 UV-I 478 W/m 10,4 C 21,3 C 6,4 km/h (2 Bft)
20.06.2016 15:40 21,6 C 51 % 1018,5 hPa 0,0 l/m 0,8 km/h (0 Bft) S 187 5 min 0,000 mm 3,7 UV-I 451 W/m 11,0 C 21,6 C 4,8 km/h (1 Bft)
20.06.2016 15:45 21,7 C 48 % 1018,4 hPa 0,0 l/m 1,9 km/h (1 Bft) S-SW 196 0 min 0,000 mm 3,3 UV-I 397 W/m 10,2 C 21,7 C 12,9 km/h (3 Bft)
20.06.2016 15:50 21,3 C 51 % 1018,3 hPa 0,0 l/m 2,1 km/h (1 Bft) S-SO 152 0 min 0,000 mm 3,1 UV-I 368 W/m 10,7 C 21,3 C 9,7 km/h (2 Bft)
20.06.2016 15:55 21,2 C 50 % 1018,2 hPa 0,0 l/m 3,8 km/h (1 Bft) S-SW 195 5 min 0,000 mm 3,6 UV-I 449 W/m 10,4 C 21,2 C 11,3 km/h (2 Bft)
20.06.2016 16:00 20,9 C 50 % 1018,2 hPa 0,0 l/m 5,9 km/h (2 Bft) SW 225 5 min 0,000 mm 3,8 UV-I 488 W/m 10,1 C 20,9 C 17,7 km/h (3 Bft)
20.06.2016 16:05 21,3 C 49 % 1018,2 hPa 0,0 l/m 2,7 km/h (1 Bft) S-SW 196 0 min 0,279 mm 3,3 UV-I 388 W/m 10,1 C 21,3 C 11,3 km/h (2 Bft)
20.06.2016 16:10 21,2 C 49 % 1018,1 hPa 0,0 l/m 2,5 km/h (1 Bft) S-SW 199 5 min 0,000 mm 3,5 UV-I 453 W/m 10,1 C 21,2 C 8,0 km/h (2 Bft)
20.06.2016 16:15 21,1 C 49 % 1018,0 hPa 0,0 l/m 4,3 km/h (1 Bft) O-SO 110 5 min 0,000 mm 3,5 UV-I 442 W/m 10,0 C 21,1 C 17,7 km/h (3 Bft)
20.06.2016 16:20 21,3 C 49 % 1017,9 hPa 0,0 l/m 2,2 km/h (1 Bft) S-SO 159 0 min 0,000 mm 3,0 UV-I 357 W/m 10,1 C 21,3 C 12,9 km/h (3 Bft)
20.06.2016 16:25 21,1 C 50 % 1017,8 hPa 0,0 l/m 3,7 km/h (1 Bft) W-SW 238 0 min 0,000 mm 2,6 UV-I 301 W/m 10,3 C 21,1 C 16,1 km/h (3 Bft)
20.06.2016 16:30 21,1 C 50 % 1017,6 hPa 0,0 l/m 1,3 km/h (1 Bft) SW 218 0 min 0,000 mm 2,2 UV-I 251 W/m 10,3 C 21,1 C 8,0 km/h (2 Bft)
20.06.2016 16:35 21,1 C 50 % 1017,7 hPa 0,0 l/m 1,4 km/h (1 Bft) SO 128 0 min 0,000 mm 1,9 UV-I 225 W/m 10,3 C 21,1 C 6,4 km/h (2 Bft)
20.06.2016 16:40 20,9 C 51 % 1017,7 hPa 0,0 l/m 2,5 km/h (1 Bft) SW 232 0 min 0,000 mm 1,8 UV-I 221 W/m 10,4 C 20,9 C 14,5 km/h (3 Bft)
20.06.2016 16:45 20,7 C 51 % 1017,8 hPa 0,0 l/m 2,0 km/h (1 Bft) S 185 0 min 0,000 mm 1,4 UV-I 181 W/m 10,2 C 20,7 C 9,7 km/h (2 Bft)
20.06.2016 16:50 20,5 C 51 % 1017,7 hPa 0,0 l/m 3,0 km/h (1 Bft) S 190 0 min 0,000 mm 1,4 UV-I 195 W/m 10,0 C 20,5 C 11,3 km/h (2 Bft)
20.06.2016 16:55 20,7 C 52 % 1017,5 hPa 0,0 l/m 0,3 km/h (0 Bft) S-SW 200 0 min 0,000 mm 1,8 UV-I 255 W/m 10,5 C 20,7 C 3,2 km/h (1 Bft)
20.06.2016 17:00 21,0 C 51 % 1017,4 hPa 0,0 l/m 0,7 km/h (0 Bft) S-SW 213 0 min 0,000 mm 2,1 UV-I 294 W/m 10,5 C 21,0 C 3,2 km/h (1 Bft)
20.06.2016 17:05 20,9 C 51 % 1017,4 hPa 0,0 l/m 1,3 km/h (1 Bft) W-SW 254 0 min 0,203 mm 1,7 UV-I 229 W/m 10,4 C 20,9 C 4,8 km/h (1 Bft)
20.06.2016 17:10 20,8 C 52 % 1017,3 hPa 0,0 l/m 1,6 km/h (1 Bft) W-NW 297 0 min 0,000 mm 1,5 UV-I 215 W/m 10,6 C 20,8 C 6,4 km/h (2 Bft)
20.06.2016 17:15 20,6 C 53 % 1017,2 hPa 0,0 l/m 2,8 km/h (1 Bft) S-SO 148 0 min 0,000 mm 1,6 UV-I 234 W/m 10,7 C 20,6 C 8,0 km/h (2 Bft)
20.06.2016 17:20 20,4 C 53 % 1017,2 hPa 0,0 l/m 3,2 km/h (1 Bft) O 87 0 min 0,000 mm 1,5 UV-I 223 W/m 10,5 C 20,4 C 12,9 km/h (3 Bft)
20.06.2016 17:25 20,4 C 53 % 1017,0 hPa 0,0 l/m 2,3 km/h (1 Bft) S 175 0 min 0,000 mm 1,5 UV-I 230 W/m 10,5 C 20,4 C 12,9 km/h (3 Bft)
20.06.2016 17:30 20,5 C 53 % 1017,0 hPa 0,0 l/m 1,4 km/h (1 Bft) S-SO 161 0 min 0,000 mm 1,5 UV-I 245 W/m 10,6 C 20,5 C 8,0 km/h (2 Bft)
20.06.2016 17:35 20,6 C 54 % 1017,0 hPa 0,0 l/m 1,8 km/h (1 Bft) SW 219 0 min 0,000 mm 1,4 UV-I 236 W/m 11,0 C 20,6 C 6,4 km/h (2 Bft)
20.06.2016 17:40 20,5 C 54 % 1017,0 hPa 0,0 l/m 2,5 km/h (1 Bft) S 188 0 min 0,000 mm 1,3 UV-I 222 W/m 10,9 C 20,5 C 14,5 km/h (3 Bft)
20.06.2016 17:45 20,6 C 53 % 1017,0 hPa 0,0 l/m 1,5 km/h (1 Bft) SW 223 0 min 0,000 mm 1,4 UV-I 228 W/m 10,7 C 20,6 C 6,4 km/h (2 Bft)
20.06.2016 17:50 20,6 C 54 % 1016,9 hPa 0,0 l/m 1,3 km/h (1 Bft) S-SW 213 0 min 0,000 mm 1,3 UV-I 223 W/m 11,0 C 20,6 C 6,4 km/h (2 Bft)
20.06.2016 17:55 20,6 C 54 % 1016,9 hPa 0,0 l/m 1,1 km/h (1 Bft) S 190 0 min 0,000 mm 1,3 UV-I 221 W/m 11,0 C 20,6 C 4,8 km/h (1 Bft)
20.06.2016 18:00 20,3 C 52 % 1016,8 hPa 0,0 l/m 2,5 km/h (1 Bft) S-SW 194 0 min 0,000 mm 1,3 UV-I 226 W/m 10,1 C 20,3 C 12,9 km/h (3 Bft)
20.06.2016 18:05 20,3 C 54 % 1016,7 hPa 0,0 l/m 2,2 km/h (1 Bft) S-SW 200 0 min 0,153 mm 1,2 UV-I 217 W/m 10,7 C 20,3 C 14,5 km/h (3 Bft)
20.06.2016 18:10 20,3 C 54 % 1016,7 hPa 0,0 l/m 2,7 km/h (1 Bft) SO 138 0 min 0,000 mm 1,0 UV-I 159 W/m 10,7 C 20,3 C 11,3 km/h (2 Bft)
20.06.2016 18:15 20,3 C 54 % 1016,7 hPa 0,0 l/m 1,7 km/h (1 Bft) S-SO 159 0 min 0,000 mm 0,8 UV-I 124 W/m 10,7 C 20,3 C 12,9 km/h (3 Bft)
20.06.2016 18:20 20,2 C 54 % 1016,8 hPa 0,0 l/m 2,5 km/h (1 Bft) W 270 0 min 0,000 mm 0,7 UV-I 99 W/m 10,6 C 20,2 C 16,1 km/h (3 Bft)
20.06.2016 18:25 20,0 C 54 % 1016,7 hPa 0,0 l/m 3,1 km/h (1 Bft) S-SW 192 0 min 0,000 mm 0,5 UV-I 81 W/m 10,4 C 20,0 C 19,3 km/h (3 Bft)
20.06.2016 18:30 19,8 C 55 % 1016,7 hPa 0,0 l/m 3,3 km/h (1 Bft) SW 233 0 min 0,000 mm 0,5 UV-I 87 W/m 10,5 C 19,8 C 16,1 km/h (3 Bft)
20.06.2016 18:35 19,8 C 58 % 1016,6 hPa 0,0 l/m 0,4 km/h (0 Bft) S 188 0 min 0,000 mm 0,5 UV-I 99 W/m 11,3 C 19,8 C 3,2 km/h (1 Bft)
20.06.2016 18:40 19,6 C 59 % 1016,7 hPa 0,0 l/m 0,6 km/h (0 Bft) W-NW 291 0 min 0,000 mm 0,5 UV-I 94 W/m 11,4 C 19,6 C 4,8 km/h (1 Bft)
20.06.2016 18:45 19,3 C 60 % 1016,6 hPa 0,0 l/m 1,0 km/h (0 Bft) S 180 0 min 0,000 mm 0,0 UV-I 74 W/m 11,3 C 19,3 C 6,4 km/h (2 Bft)
20.06.2016 18:50 19,1 C 62 % 1016,6 hPa 0,0 l/m 0,9 km/h (0 Bft) S-SW 205 0 min 0,000 mm 0,0 UV-I 70 W/m 11,6 C 19,1 C 6,4 km/h (2 Bft)
20.06.2016 18:55 18,9 C 65 % 1016,6 hPa 0,0 l/m 0,1 km/h (0 Bft) SW 232 0 min 0,000 mm 0,0 UV-I 60 W/m 12,2 C 18,9 C 1,6 km/h (1 Bft)
20.06.2016 19:00 18,6 C 65 % 1016,6 hPa 0,0 l/m 0,1 km/h (0 Bft) S-SW 211 0 min 0,000 mm 0,0 UV-I 45 W/m 11,9 C 18,6 C 1,6 km/h (1 Bft)
20.06.2016 19:05 18,4 C 65 % 1016,6 hPa 0,0 l/m 0,4 km/h (0 Bft) S 187 0 min 0,076 mm 0,0 UV-I 41 W/m 11,7 C 18,4 C 3,2 km/h (1 Bft)
20.06.2016 19:10 18,2 C 68 % 1016,5 hPa 0,2 l/m 0,0 km/h (0 Bft) S-SW 207 0 min 0,000 mm 0,0 UV-I 53 W/m 12,2 C 18,2 C 0,0 km/h (0 Bft)
20.06.2016 19:15 18,1 C 70 % 1016,5 hPa 0,0 l/m 0,0 km/h (0 Bft) S-SW 194 0 min 0,000 mm 0,0 UV-I 70 W/m 12,5 C 18,1 C 0,0 km/h (0 Bft)
20.06.2016 19:20 17,9 C 69 % 1016,5 hPa 0,0 l/m 0,0 km/h (0 Bft) S 171 0 min 0,000 mm 0,0 UV-I 65 W/m 12,1 C 17,9 C 0,0 km/h (0 Bft)
20.06.2016 19:25 17,8 C 69 % 1016,4 hPa 0,2 l/m 0,2 km/h (0 Bft) SW 223 0 min 0,000 mm 0,0 UV-I 53 W/m 12,0 C 17,8 C 3,2 km/h (1 Bft)
20.06.2016 19:30 17,7 C 73 % 1016,6 hPa 0,0 l/m 0,0 km/h (0 Bft) O-NO 63 0 min 0,000 mm 0,0 UV-I 52 W/m 12,8 C 17,7 C 1,6 km/h (1 Bft)
20.06.2016 19:35 17,4 C 71 % 1016,5 hPa 0,0 l/m 0,3 km/h (0 Bft) SW 232 0 min 0,000 mm 0,0 UV-I 64 W/m 12,1 C 17,4 C 4,8 km/h (1 Bft)
20.06.2016 19:40 17,3 C 77 % 1016,4 hPa 0,0 l/m 0,0 km/h (0 Bft) O 100 0 min 0,000 mm 0,0 UV-I 56 W/m 13,2 C 17,3 C 0,0 km/h (0 Bft)
20.06.2016 19:45 17,2 C 75 % 1016,4 hPa 0,0 l/m 0,1 km/h (0 Bft) S-SO 155 0 min 0,000 mm 0,0 UV-I 38 W/m 12,7 C 17,2 C 1,6 km/h (1 Bft)
20.06.2016 19:50 17,1 C 75 % 1016,5 hPa 0,0 l/m 0,0 km/h (0 Bft) SW 222 0 min 0,000 mm 0,0 UV-I 26 W/m 12,6 C 17,1 C 1,6 km/h (1 Bft)
20.06.2016 19:55 16,9 C 76 % 1016,4 hPa 0,0 l/m 0,2 km/h (0 Bft) S 185 0 min 0,000 mm 0,0 UV-I 17 W/m 12,6 C 16,9 C 4,8 km/h (1 Bft)
20.06.2016 20:00 16,7 C 76 % 1016,3 hPa 0,2 l/m 0,4 km/h (0 Bft) SW 221 0 min 0,000 mm 0,0 UV-I 15 W/m 12,4 C 16,7 C 6,4 km/h (2 Bft)
20.06.2016 20:05 16,6 C 76 % 1016,3 hPa 0,2 l/m 0,8 km/h (0 Bft) S-SW 200 0 min 0,025 mm 0,0 UV-I 17 W/m 12,3 C 16,6 C 6,4 km/h (2 Bft)
20.06.2016 20:10 16,4 C 79 % 1016,3 hPa 0,0 l/m 0,3 km/h (0 Bft) S-SO 153 0 min 0,000 mm 0,0 UV-I 18 W/m 12,7 C 16,4 C 6,4 km/h (2 Bft)
20.06.2016 20:15 16,2 C 79 % 1016,4 hPa 0,0 l/m 0,3 km/h (0 Bft) SW 223 0 min 0,000 mm 0,0 UV-I 25 W/m 12,6 C 16,2 C 4,8 km/h (1 Bft)
20.06.2016 20:20 16,1 C 81 % 1016,6 hPa 0,0 l/m 0,7 km/h (0 Bft) S 181 0 min 0,000 mm 0,0 UV-I 27 W/m 12,8 C 16,1 C 4,8 km/h (1 Bft)
20.06.2016 20:25 15,9 C 81 % 1016,6 hPa 0,0 l/m 0,3 km/h (0 Bft) S 170 0 min 0,000 mm 0,0 UV-I 23 W/m 12,6 C 15,9 C 4,8 km/h (1 Bft)
20.06.2016 20:30 15,8 C 82 % 1016,7 hPa 0,0 l/m 0,3 km/h (0 Bft) S 186 0 min 0,000 mm 0,0 UV-I 22 W/m 12,7 C 15,8 C 4,8 km/h (1 Bft)
20.06.2016 20:35 15,7 C 83 % 1016,7 hPa 0,0 l/m 0,1 km/h (0 Bft) S-SW 201 0 min 0,000 mm 0,0 UV-I 14 W/m 12,8 C 15,7 C 3,2 km/h (1 Bft)
20.06.2016 20:40 15,7 C 83 % 1016,7 hPa 0,2 l/m 0,4 km/h (0 Bft) S 188 0 min 0,000 mm 0,0 UV-I 11 W/m 12,8 C 15,7 C 4,8 km/h (1 Bft)
20.06.2016 20:45 15,6 C 84 % 1016,7 hPa 0,0 l/m 0,2 km/h (0 Bft) S 177 0 min 0,000 mm 0,0 UV-I 10 W/m 12,9 C 15,6 C 3,2 km/h (1 Bft)
20.06.2016 20:50 15,4 C 85 % 1016,7 hPa 0,0 l/m 0,2 km/h (0 Bft) S 182 0 min 0,000 mm 0,0 UV-I 10 W/m 12,9 C 15,4 C 4,8 km/h (1 Bft)
20.06.2016 20:55 15,3 C 85 % 1016,8 hPa 0,2 l/m 0,3 km/h (0 Bft) SW 221 0 min 0,000 mm 0,0 UV-I 8 W/m 12,8 C 15,3 C 6,4 km/h (2 Bft)
20.06.2016 21:00 15,2 C 86 % 1016,7 hPa 0,0 l/m 0,3 km/h (0 Bft) SW 221 0 min 0,000 mm 0,0 UV-I 3 W/m 12,9 C 15,2 C 4,8 km/h (1 Bft)
20.06.2016 21:05 15,2 C 86 % 1016,8 hPa 0,2 l/m 0,8 km/h (0 Bft) W-NW 293 0 min 0,000 mm 0,0 UV-I 0 W/m 12,9 C 15,2 C 6,4 km/h (2 Bft)
20.06.2016 21:10 15,1 C 87 % 1016,8 hPa 0,2 l/m 0,6 km/h (0 Bft) SW 215 0 min 0,000 mm 0,0 UV-I 0 W/m 13,0 C 15,1 C 4,8 km/h (1 Bft)
20.06.2016 21:15 14,9 C 88 % 1016,7 hPa 0,4 l/m 0,3 km/h (0 Bft) S-SO 159 0 min 0,000 mm 0,0 UV-I 0 W/m 12,9 C 14,9 C 4,8 km/h (1 Bft)
20.06.2016 21:20 14,8 C 88 % 1016,8 hPa 0,0 l/m 0,3 km/h (0 Bft) W 265 0 min 0,000 mm 0,0 UV-I 0 W/m 12,8 C 14,8 C 6,4 km/h (2 Bft)
20.06.2016 21:25 14,7 C 89 % 1016,9 hPa 0,0 l/m 1,7 km/h (1 Bft) SW 216 0 min 0,000 mm 0,0 UV-I 0 W/m 12,9 C 14,7 C 11,3 km/h (2 Bft)
20.06.2016 21:30 14,6 C 90 % 1017,0 hPa 0,2 l/m 1,6 km/h (1 Bft) SW 217 0 min 0,000 mm 0,0 UV-I 0 W/m 13,0 C 14,6 C 11,3 km/h (2 Bft)
20.06.2016 21:35 14,5 C 90 % 1017,0 hPa 0,0 l/m 1,2 km/h (1 Bft) W 265 0 min 0,000 mm 0,0 UV-I 0 W/m 12,9 C 14,5 C 8,0 km/h (2 Bft)
20.06.2016 21:40 14,4 C 90 % 1016,9 hPa 0,2 l/m 2,3 km/h (1 Bft) SW 218 0 min 0,000 mm 0,0 UV-I 0 W/m 12,8 C 14,4 C 11,3 km/h (2 Bft)
20.06.2016 21:45 14,3 C 90 % 1017,0 hPa 0,0 l/m 2,0 km/h (1 Bft) SW 226 0 min 0,000 mm 0,0 UV-I 0 W/m 12,7 C 14,3 C 11,3 km/h (2 Bft)
20.06.2016 21:50 14,3 C 91 % 1017,0 hPa 0,2 l/m 3,2 km/h (1 Bft) SW 219 0 min 0,000 mm 0,0 UV-I 0 W/m 12,8 C 14,3 C 12,9 km/h (3 Bft)
20.06.2016 21:55 14,2 C 91 % 1016,9 hPa 0,2 l/m 3,4 km/h (1 Bft) W-SW 257 0 min 0,000 mm 0,0 UV-I 0 W/m 12,8 C 14,2 C 16,1 km/h (3 Bft)
20.06.2016 22:00 14,2 C 91 % 1016,9 hPa 0,0 l/m 2,5 km/h (1 Bft) S-SO 164 0 min 0,000 mm 0,0 UV-I 0 W/m 12,8 C 14,2 C 9,7 km/h (2 Bft)
20.06.2016 22:05 14,2 C 91 % 1016,9 hPa 0,0 l/m 3,4 km/h (1 Bft) W 276 0 min 0,000 mm 0,0 UV-I 0 W/m 12,8 C 14,2 C 12,9 km/h (3 Bft)
20.06.2016 22:10 14,2 C 92 % 1016,9 hPa 0,0 l/m 2,5 km/h (1 Bft) W-SW 258 0 min 0,000 mm 0,0 UV-I 0 W/m 12,9 C 14,2 C 9,7 km/h (2 Bft)
20.06.2016 22:15 14,2 C 92 % 1016,9 hPa 0,2 l/m 2,8 km/h (1 Bft) SW 236 0 min 0,000 mm 0,0 UV-I 0 W/m 12,9 C 14,2 C 11,3 km/h (2 Bft)
20.06.2016 22:20 14,2 C 92 % 1016,9 hPa 0,0 l/m 2,8 km/h (1 Bft) SW 226 0 min 0,000 mm 0,0 UV-I 0 W/m 12,9 C 14,2 C 14,5 km/h (3 Bft)
20.06.2016 22:25 14,1 C 92 % 1016,9 hPa 0,0 l/m 3,8 km/h (1 Bft) S-SW 198 0 min 0,000 mm 0,0 UV-I 0 W/m 12,8 C 14,1 C 14,5 km/h (3 Bft)
20.06.2016 22:30 14,1 C 91 % 1016,8 hPa 0,2 l/m 4,6 km/h (1 Bft) W-SW 257 0 min 0,000 mm 0,0 UV-I 0 W/m 12,7 C 14,1 C 14,5 km/h (3 Bft)
20.06.2016 22:35 14,1 C 91 % 1016,8 hPa 0,0 l/m 3,9 km/h (1 Bft) SW 232 0 min 0,000 mm 0,0 UV-I 0 W/m 12,7 C 14,1 C 19,3 km/h (3 Bft)
20.06.2016 22:40 14,1 C 92 % 1016,8 hPa 0,0 l/m 1,4 km/h (1 Bft) S-SO 165 0 min 0,000 mm 0,0 UV-I 0 W/m 12,8 C 14,1 C 12,9 km/h (3 Bft)
20.06.2016 22:45 14,1 C 92 % 1016,7 hPa 0,0 l/m 3,8 km/h (1 Bft) S-SW 192 0 min 0,000 mm 0,0 UV-I 0 W/m 12,8 C 14,1 C 16,1 km/h (3 Bft)
20.06.2016 22:50 14,1 C 92 % 1016,7 hPa 0,0 l/m 2,4 km/h (1 Bft) S-SW 210 0 min 0,000 mm 0,0 UV-I 0 W/m 12,8 C 14,1 C 12,9 km/h (3 Bft)
20.06.2016 22:55 14,1 C 92 % 1016,6 hPa 0,0 l/m 4,7 km/h (1 Bft) S-SW 205 0 min 0,000 mm 0,0 UV-I 0 W/m 12,8 C 14,1 C 12,9 km/h (3 Bft)
20.06.2016 23:00 14,1 C 92 % 1016,6 hPa 0,0 l/m 2,7 km/h (1 Bft) W-SW 246 0 min 0,000 mm 0,0 UV-I 0 W/m 12,8 C 14,1 C 11,3 km/h (2 Bft)
20.06.2016 23:05 14,1 C 93 % 1016,6 hPa 0,0 l/m 2,0 km/h (1 Bft) W-SW 238 0 min 0,000 mm 0,0 UV-I 0 W/m 13,0 C 14,1 C 11,3 km/h (2 Bft)
20.06.2016 23:10 14,1 C 93 % 1016,5 hPa 0,0 l/m 2,4 km/h (1 Bft) SW 233 0 min 0,000 mm 0,0 UV-I 0 W/m 13,0 C 14,1 C 14,5 km/h (3 Bft)
20.06.2016 23:15 14,0 C 93 % 1016,4 hPa 0,2 l/m 1,4 km/h (1 Bft) S 177 0 min 0,000 mm 0,0 UV-I 0 W/m 12,9 C 14,0 C 9,7 km/h (2 Bft)
20.06.2016 23:20 14,0 C 93 % 1016,4 hPa 0,0 l/m 0,9 km/h (0 Bft) S-SW 212 0 min 0,000 mm 0,0 UV-I 0 W/m 12,9 C 14,0 C 6,4 km/h (2 Bft)
20.06.2016 23:25 14,0 C 93 % 1016,4 hPa 0,0 l/m 4,0 km/h (1 Bft) SW 234 0 min 0,000 mm 0,0 UV-I 0 W/m 12,9 C 14,0 C 16,1 km/h (3 Bft)
20.06.2016 23:30 14,0 C 93 % 1016,4 hPa 0,0 l/m 1,3 km/h (1 Bft) W-SW 241 0 min 0,000 mm 0,0 UV-I 0 W/m 12,9 C 14,0 C 8,0 km/h (2 Bft)
20.06.2016 23:35 13,9 C 93 % 1016,4 hPa 0,0 l/m 3,0 km/h (1 Bft) W-NW 290 0 min 0,000 mm 0,0 UV-I 0 W/m 12,8 C 13,9 C 14,5 km/h (3 Bft)
20.06.2016 23:40 13,9 C 93 % 1016,4 hPa 0,0 l/m 2,6 km/h (1 Bft) SW 227 0 min 0,000 mm 0,0 UV-I 0 W/m 12,8 C 13,9 C 11,3 km/h (2 Bft)
20.06.2016 23:45 13,9 C 93 % 1016,4 hPa 0,0 l/m 1,6 km/h (1 Bft) S 181 0 min 0,000 mm 0,0 UV-I 0 W/m 12,8 C 13,9 C 11,3 km/h (2 Bft)
20.06.2016 23:50 13,9 C 93 % 1016,4 hPa 0,0 l/m 0,8 km/h (0 Bft) SW 219 0 min 0,000 mm 0,0 UV-I 0 W/m 12,8 C 13,9 C 6,4 km/h (2 Bft)
20.06.2016 23:55 13,9 C 93 % 1016,4 hPa 0,0 l/m 0,4 km/h (0 Bft) W-NW 292 0 min 0,000 mm 0,0 UV-I 0 W/m 12,8 C 13,9 C 8,0 km/h (2 Bft)
_ Min-Zeit 06:00 14:25 20:00 - 00:00 - - - - - - 03:20 06:00 00:00
Minimum _ 6,1 C 44 % 1016,3 hPa - 0,0 km/h (0 Bft) - - - - - - 5,2 C 6,1 C 0,0 km/h (0 Bft)
_ Max-Zeit 14:40 06:30 00:40 21:15 14:20 - - 07:50 13:05 14:05 14:10 19:40 14:30 14:20
Maximum _ 22,8 C 96 % 1024,3 hPa 0,4 l/m 9,3 km/h
S (2 Bft)
- - 5 min 0,508 mm 8,1 UV-I 979 W/m 13,2 C 22,5 C 22,5 km/h
SO (4 Bft)
Durchschnitt _ 14,3 C 75 % 1020,4 hPa #3,4 l/m 1,6 km/h (1 Bft) SW - #7:40 h #3,505 mm 3,7 UV-I 377 W/m 9,3 C 14,3 C 6,5 km/h (2 Bft)